TimeEST,TemperatureF,Dew PointF,Humidity,Sea Level PressureIn,VisibilityMPH,Wind Direction,Wind SpeedMPH,Gust SpeedMPH,PrecipitationIn,Events,Conditions,WindDirDegrees,DateUTC
12:53 AM,24.1,9.0,53,30.51,10.0,ENE,4.6,-,N/A,,Clear,60,2013-01-25 05:53:00
1:53 AM,23.0,10.0,58,30.53,10.0,NNE,4.6,-,N/A,,Clear,30,2013-01-25 06:53:00
2:53 AM,23.0,10.0,58,30.52,10.0,NNE,4.6,-,N/A,,Clear,30,2013-01-25 07:53:00
3:53 AM,23.0,10.9,60,30.50,10.0,NE,6.9,-,N/A,,Clear,40,2013-01-25 08:53:00
4:53 AM,23.0,10.0,58,30.50,10.0,North,6.9,-,N/A,,Clear,10,2013-01-25 09:53:00
5:53 AM,23.0,9.0,55,30.49,10.0,NNE,6.9,-,N/A,,Clear,30,2013-01-25 10:53:00
6:53 AM,24.1,9.0,53,30.48,10.0,NNE,10.4,-,N/A,,Clear,30,2013-01-25 11:53:00
7:53 AM,25.0,10.0,53,30.47,10.0,NE,6.9,-,N/A,,Clear,50,2013-01-25 12:53:00
8:53 AM,28.0,10.0,47,30.47,10.0,NE,8.1,-,N/A,,Clear,40,2013-01-25 13:53:00
9:53 AM,33.1,15.1,48,30.45,10.0,Variable,4.6,-,N/A,,Clear,0,2013-01-25 14:53:00
10:53 AM,36.0,21.9,57,30.42,10.0,NE,9.2,-,N/A,,Overcast,50,2013-01-25 15:53:00
11:25 AM,35.6,23.0,60,30.40,10.0,ENE,6.9,-,N/A,,Overcast,70,2013-01-25 16:25:00
11:53 AM,36.0,25.0,64,30.39,10.0,ENE,8.1,-,N/A,,Overcast,60,2013-01-25 16:53:00
12:53 PM,36.0,27.0,70,30.31,10.0,ENE,5.8,-,N/A,,Overcast,60,2013-01-25 17:53:00
1:29 PM,35.6,26.6,70,30.27,10.0,ENE,5.8,-,N/A,,Overcast,70,2013-01-25 18:29:00
1:53 PM,37.0,28.0,70,30.26,10.0,NNE,8.1,-,N/A,,Overcast,30,2013-01-25 18:53:00
2:53 PM,37.9,30.0,73,30.20,10.0,Calm,Calm,-,N/A,,Overcast,0,2013-01-25 19:53:00
3:53 PM,37.0,30.0,76,30.19,10.0,Calm,Calm,-,N/A,,Overcast,0,2013-01-25 20:53:00
4:23 PM,37.4,30.2,75,30.18,10.0,NNW,3.5,-,N/A,,Overcast,330,2013-01-25 21:23:00
4:29 PM,37.4,30.2,75,30.18,10.0,NNW,9.2,-,N/A,,Overcast,330,2013-01-25 21:29:00
4:53 PM,37.0,30.9,79,30.18,10.0,North,6.9,-,0.00,Rain,Light Rain,350,2013-01-25 21:53:00
5:21 PM,35.6,30.2,81,30.17,7.0,NNW,9.2,-,0.02,Rain,Light Rain,330,2013-01-25 22:21:00
5:53 PM,35.1,32.0,89,30.17,6.0,WNW,9.2,-,0.04,Rain,Light Rain,300,2013-01-25 22:53:00
6:17 PM,33.8,30.2,87,30.14,7.0,WNW,5.8,16.1,0.01,Rain,Light Rain,300,2013-01-25 23:17:00
6:53 PM,33.1,30.0,89,30.14,7.0,WNW,4.6,-,0.01,Rain,Light Rain,300,2013-01-25 23:53:00
7:20 PM,33.8,30.2,87,30.17,6.0,NNW,11.5,-,0.00,,Overcast,330,2013-01-26 00:20:00
7:45 PM,32.0,30.2,93,30.16,6.0,West,4.6,-,0.00,Rain,Light Rain,280,2013-01-26 00:45:00
7:53 PM,32.0,30.0,92,30.15,5.0,West,3.5,-,0.00,,Overcast,280,2013-01-26 00:53:00
8:53 PM,33.1,30.0,89,30.14,5.0,WNW,8.1,-,0.01,Rain,Light Rain,290,2013-01-26 01:53:00
9:05 PM,33.8,30.2,87,30.15,5.0,WNW,9.2,-,0.00,Rain,Light Rain,300,2013-01-26 02:05:00
9:14 PM,33.8,30.2,87,30.14,5.0,NW,8.1,-,0.00,Rain,Light Rain,310,2013-01-26 02:14:00
9:53 PM,32.0,28.9,88,30.17,6.0,NW,12.7,-,0.00,,Overcast,310,2013-01-26 02:53:00
10:02 PM,32.0,30.2,93,30.16,6.0,NW,8.1,-,N/A,,Overcast,310,2013-01-26 03:02:00
10:53 PM,32.0,28.9,88,30.16,6.0,NW,8.1,-,N/A,,Overcast,320,2013-01-26 03:53:00
11:53 PM,33.1,28.9,85,30.14,8.0,WNW,6.9,-,N/A,,Overcast,300,2013-01-26 04:53:00